This is the latest recevied weather packets stored in our database for station/object KE0QIB. If no packets are shown the sender has not sent any weather packets the latest 10 day(s).
| Time | Temp. | Humidity | Pressure | Rain* | Wind** | Luminosity | Snow |
|---|---|---|---|---|---|---|---|
| 1778024512 | 5° C | 55% | 1002.6 hPa | 0 mm | - | - | - |
| 1778024212 | 5° C | 56% | 1002.5 hPa | 0 mm | - | - | - |
| 1778023912 | 5° C | 55% | 1002.5 hPa | 0 mm | - | - | - |
| 1778023612 | 5.56° C | 54% | 1002.5 hPa | 0 mm | - | - | - |
| 1778023312 | 5.56° C | 53% | 1001.9 hPa | 0 mm | - | - | - |
| 1778023012 | 5.56° C | 53% | 1001.9 hPa | 0 mm | - | - | - |
| 1778022712 | 5.56° C | 54% | 1001.9 hPa | 0 mm | - | - | - |
| 1778022412 | 5.56° C | 57% | 1001.5 hPa | 0 mm | - | - | - |
| 1778022112 | 5.56° C | 58% | 1001.5 hPa | 0 mm | - | - | - |
| 1778021812 | 5° C | 60% | 1001.5 hPa | 0 mm | - | - | - |
| 1778021512 | 5° C | 62% | 1001.8 hPa | 0 mm | - | - | - |
| 1778021212 | 5° C | 63% | 1001.8 hPa | 0 mm | - | - | - |
| 1778020912 | 5° C | 63% | 1001.8 hPa | 0 mm | - | - | - |
| 1778020612 | 5° C | 64% | 1001.8 hPa | 0 mm | - | - | - |
| 1778020312 | 5° C | 61% | 1001.8 hPa | 0 mm | - | - | - |
| 1778020012 | 5.56° C | 59% | 1001.8 hPa | 0 mm | - | - | - |
| 1778019712 | 5.56° C | 54% | 1001.2 hPa | 0 mm | - | - | - |
| 1778019412 | 6.11° C | 51% | 1001.2 hPa | 0 mm | - | - | - |
| 1778019112 | 6.11° C | 50% | 1001.2 hPa | 0 mm | - | - | - |
| 1778018812 | 6.11° C | 50% | 1001 hPa | 0 mm | - | - | - |
| 1778018512 | 6.11° C | 49% | 1001 hPa | 0 mm | - | - | - |
| 1778018212 | 6.11° C | 48% | 1001 hPa | 0 mm | - | - | - |
| 1778017912 | 6.11° C | 51% | 1001.1 hPa | 0 mm | - | - | - |
| 1778017612 | 6.11° C | 50% | 1001.1 hPa | 0 mm | - | - | - |
| 1778017312 | 6.11° C | 48% | 1001.1 hPa | 0 mm | - | - | - |
* Rain latest hour (hover to see other rain measurements)
** Current wind speed in m/s (hover to see current wind gust speed)